Terminal Aerodrome Forecast
Issued by NWS

Home | Current Version | Previous Version | Graphics & Text | Print | Product List | Glossary On
Versions: 1 2 3 4 5 6 7 8 9 10 11 12 13 14 15 16 17 18 19 20
354
FTUS42 KMHX 031740
TAFOAJ
TAF
KOAJ 031740Z 0318/0418 18018G26KT P6SM SCT045
     FM032000 18015G25KT P6SM SHRA SCT020 BKN035
      TEMPO 0321/0324 6SM BR BKN020
     FM040000 18012G20KT 4SM SHRA BR VCTS OVC020CB
     FM040600 20012KT 4SM RA BR SCT007 OVC012
     FM041200 22008KT 4SM -RA BR BKN007
      AMD LTD TO CLD VIS AND WIND=

USA.gov is the U.S. government's official web portal to all federal, state and local government web resources and services.